NOAA NWS Hourly Roundups by Site

Regional Weather Roundup for State College, PA

To Select Another Site Choose from List

Select Site:  

000
ASUS41 KCTP 230410
RWRCTP

REGIONAL WEATHER ROUNDUP
NATIONAL WEATHER SERVICE STATE COLLEGE PA
1200 AM EDT FRI AUG 23 2019

Note: "fair" indicates few or no clouds below 12,000 feet with no
significant weather and/or obstructions to visibility.

* = STATION THAT DOES NOT REPORT PRECIPITATION /E.G. RAIN...SNOW...ETC/
    THUNDER OR FOG.

PAZ002>004-007>009-013>016-020>023-029>032-230500-
WESTERN PENNSYLVANIA

CITY           SKY/WX    TMP DP  RH WIND       PRES   REMARKS
ERIE           FAIR      68  53  58 NW7       30.04R
MEADVILLE      FAIR      60  51  72 CALM      30.06R
FRANKLIN*      CLOUDY    61  55  81 CALM      30.07R
NEW CASTLE     CLOUDY    65  58  78 N5        30.06R
BEAVER COUNTY  CLOUDY    65  57  74 N3        30.06R
BUTLER*        CLOUDY    65  57  75 N5        30.06R
PITTSBURGH INT CLOUDY    67  57  70 N7        30.04R
PITTSBURGH     CLOUDY    66  61  84 N8        30.03R
INDIANA*       CLOUDY    64  63  94 CALM      30.08R
LATROBE        CLOUDY    66  68 100 N5        30.03R
WASHINGTON CO* CLOUDY    66  63  90 N7        30.05R
$$

PAZ004>006-010>012-017>019-024>028-033>037-041-042-045-046-049>053-230500-
CENTRAL PENNSYLVANIA

CITY           SKY/WX    TMP DP  RH WIND       PRES   REMARKS
BRADFORD       FAIR      52  51  97 CALM      30.06R
DUBOIS         MOCLDY    60  54  80 N3        30.04R
CLEARFIELD     FAIR      63  55  75 NE5       30.04R
JOHNSTOWN      CLOUDY    66  63  90 N7        30.05R
ALTOONA        CLOUDY    70  67  90 CALM      30.02R FOG
STATE COLLEGE  CLOUDY    68  61  78 N5        30.02R
WILLIAMSPORT   FAIR      67  63  87 CALM      29.98R
SELINSGROVE    LGT RAIN  70  68  93 CALM      29.98R
FT INDIANTOWN  CLOUDY    73  68  84 CALM      29.96R
CAPITAL CITY   HVY RAIN  75  69  81 W6        29.98R
HARRISBURG     LGT RAIN  74  68  81 W10       29.97R
YORK           NOT AVBL
$$

PAZ038>040-043-044-047-048-054-055-060>062-067>071-230500-
EASTERN PENNSYLVANIA

CITY           SKY/WX    TMP DP  RH WIND       PRES   REMARKS
SCRANTON       CLOUDY    69  64  84 NE3       29.98S
MOUNT POCONO   CLOUDY    67  66  97 N6        30.00S
ALLENTOWN      HVY RAIN  73  70  90 W6        29.95R FOG
QUAKERTOWN*    CLOUDY    72  72 100 NW5       29.96R
READING        CLOUDY    74  72  93 N3        29.94R
LANCASTER      MOCLDY    76  70  82 SW3       29.95R
COATESVILLE    FAIR      73  70  88 CALM      29.97S
POTTSTOWN      MOCLDY    72  72 100 CALM      29.97R
BLUE BELL      FAIR      74  73  97 CALM      29.94S
DOYLESTOWN     MOCLDY    72  70  93 CALM      29.94R
WILLOW GROVE   NOT AVBL
NORTH PHILA    LGT RAIN  77  73  87 CALM      29.94F
PHILADELPHIA   LGT RAIN  77  70  79 W7        29.92F
$$


 

View Past Reports for State College, PA.

Products Courtesy of NOAA-NWS
NWS Information Parsing Script by Ken True at Saratoga Weather - Script by SE Lincoln Weather.